GFSMW_prec_cthk_246.txt.gz
RH
25 27 30 33 31 29 33 38 38 39 46 41 37 40 42 43 43 40 39 41 38 37 39 40 40 38 35 37 40 47 50 53 59 62 65 68 77 75 78 71 75 78 77
23 26 27 30 31 27 30 36 38 39 40 43 36 39 41 41 41 41 41 43 41 41 41 42 42 40 37 38 46 52 57 59 61 63 72 75 81 80 68 67 73 73 70
21 22 23 27 27 28 25 33 35 37 38 40 46 43 46 46 45 43 44 45 46 45 44 43 43 42 40 41 46 51 54 56 59 64 70 75 79 70 67 65 66 69 71
21 22 21 22 24 23 23 26 33 34 36 40 44 44 38 40 41 44 48 50 49 47 46 45 43 46 43 45 46 50 52 52 57 67 68 70 69 68 69 69 69 69 69
21 22 22 21 22 22 23 23 28 32 35 37 39 40 39 38 42 47 47 50 51 49 48 47 44 46 47 47 47 50 53 57 62 65 67 71 71 72 70 75 69 72 68
21 23 24 25 24 24 26 26 25 29 33 34 38 40 38 38 42 43 44 46 49 51 50 48 44 44 49 52 53 54 55 58 62 65 67 69 71 71 78 74 74 75 72
22 22 25 27 28 26 29 30 29 28 31 33 36 37 39 41 39 37 38 42 44 47 48 50 48 46 48 52 59 57 55 59 65 69 72 79 78 77 75 77 80 73 62
25 24 23 25 28 27 27 29 30 29 29 32 34 37 39 42 41 40 37 38 40 40 46 53 53 52 52 53 56 58 59 65 71 71 75 79 78 73 73 74 69 63 60
24 24 22 24 26 27 28 31 31 29 29 31 32 36 39 41 41 41 41 36 36 40 42 49 55 56 58 59 58 59 64 70 71 75 78 81 76 72 72 63 59 61 59
24 21 21 23 24 23 25 26 29 29 32 31 31 33 35 39 41 43 44 41 38 38 41 47 57 59 64 66 62 62 67 74 74 74 77 77 75 72 66 57 56 56 54
24 23 25 22 22 24 25 28 30 32 32 31 30 33 37 41 45 46 44 45 43 41 42 47 54 63 67 72 68 65 72 76 78 76 79 80 71 66 60 56 55 56 58
24 25 25 27 30 31 31 30 32 34 32 29 32 35 37 42 45 46 44 48 50 49 47 49 55 64 73 78 77 71 78 79 80 81 82 80 70 61 53 53 55 58 58
31 29 31 33 32 31 31 32 31 29 32 34 35 38 42 44 44 45 48 50 54 59 60 60 61 65 69 78 80 83 85 86 89 86 86 78 66 55 53 54 57 58 56
40 33 29 35 31 32 33 30 31 31 32 36 38 40 44 46 45 46 50 53 53 60 67 66 66 68 73 83 90 92 87 94 91 89 85 70 59 56 55 57 59 57 55
49 48 46 38 33 33 34 33 32 34 34 35 36 41 44 46 47 51 52 59 60 66 75 72 69 75 76 79 90 91 92 94 94 92 79 65 58 57 56 57 58 57 56
60 59 53 55 48 44 41 39 38 38 40 43 43 46 47 49 51 54 53 56 62 66 74 75 76 78 82 82 84 86 86 91 95 87 75 64 60 58 57 59 59 59 58
71 66 61 59 60 51 52 51 48 48 48 50 50 50 50 52 54 54 56 56 61 69 80 79 80 80 80 84 83 88 92 92 90 85 71 63 60 58 58 61 61 61 61
81 72 67 62 63 59 54 55 59 56 54 52 52 53 54 55 52 51 52 57 63 68 76 76 83 79 82 82 87 90 93 96 91 79 67 64 61 58 59 63 64 65 63
87 86 76 71 67 68 61 58 56 54 49 48 48 53 56 57 56 57 61 65 68 75 79 70 75 81 81 82 83 82 83 85 80 72 66 64 60 59 61 63 73 70 55
90 90 85 84 72 71 70 70 62 54 47 44 42 42 46 50 54 56 57 66 78 74 67 74 81 88 85 84 85 86 87 82 75 69 67 65 62 61 64 76 74 55 53
81 84 88 91 87 80 73 77 71 63 58 53 49 46 49 54 57 59 68 66 75 80 78 79 76 89 83 83 87 88 84 78 73 69 68 64 64 66 78 74 64 65 57
66 75 83 89 90 90 78 77 78 70 65 62 57 54 53 55 57 60 61 62 62 65 74 85 81 74 88 83 89 86 84 74 69 67 63 63 69 78 73 71 67 57 56
51 60 73 77 85 84 87 81 76 71 70 67 63 59 59 57 59 63 64 66 67 74 72 75 81 85 99 79 96 85 78 72 65 63 64 67 78 73 78 71 62 57 54
41 42 54 71 73 76 75 81 79 75 72 70 67 63 60 59 60 59 62 64 67 70 71 73 79 82 87 92 91 95 82 72 71 72 70 77 78 80 77 64 61 60 51
39 38 39 41 60 71 77 75 74 71 75 74 72 69 68 66 66 62 60 62 63 69 71 76 78 87 83 96 97 89 84 79 82 80 80 82 86 85 73 65 60 58 49
34 35 34 34 35 41 56 66 69 68 68 69 71 74 77 75 75 74 67 65 64 63 68 73 80 87 93 93 95 95 88 85 88 87 86 89 92 79 66 60 65 54 49

GFSMW_prec_cthk_249.txt.gz
RH
28 33 37 35 33 35 34 35 40 38 40 38 36 33 32 34 37 39 41 41 38 39 40 40 41 43 43 42 39 40 42 47 52 57 61 65 69 74 80 82 80 75 87
31 29 33 35 32 31 31 33 34 42 41 41 39 39 34 37 41 44 44 47 42 40 40 40 40 41 43 46 42 42 46 55 61 61 61 63 69 77 83 78 69 68 68
27 28 29 29 28 29 29 29 29 33 40 41 43 44 42 37 37 39 41 43 42 42 42 42 42 41 43 44 43 43 50 54 57 57 58 66 69 73 78 71 69 68 69
28 27 25 25 26 24 25 27 27 28 36 43 42 41 38 35 35 37 38 41 43 45 46 47 47 45 44 44 44 42 49 52 54 53 57 64 67 68 73 71 68 71 72
26 25 24 23 23 21 24 24 26 28 31 37 41 40 39 37 39 40 40 41 45 49 50 50 50 49 47 48 47 45 46 49 54 56 59 65 68 70 70 68 69 73 74
22 22 23 23 23 24 23 23 25 26 29 34 39 39 38 38 38 38 39 41 43 46 49 50 50 50 49 50 51 51 49 50 54 57 58 63 66 71 70 75 77 75 74
21 21 21 22 22 23 24 24 24 26 27 29 34 35 36 40 40 38 37 38 39 43 44 47 47 48 50 54 55 57 56 56 57 57 60 67 70 78 79 83 75 71 73
22 21 20 20 21 22 23 25 25 29 30 31 32 31 33 37 39 42 43 41 39 37 40 43 46 48 50 51 57 58 61 61 60 59 63 72 76 82 81 80 76 75 75
22 22 21 20 21 23 22 23 26 27 28 29 30 34 34 37 37 40 43 45 42 39 39 41 45 47 50 50 51 57 58 63 62 62 68 79 79 80 78 75 76 73 72
23 22 21 20 21 21 22 24 25 26 27 28 31 33 33 35 36 39 42 45 44 42 41 40 42 46 49 51 50 54 61 66 67 67 73 84 86 86 84 84 71 73 61
24 24 23 23 23 25 27 24 24 26 29 28 31 33 32 36 40 39 41 45 46 42 41 43 44 45 47 51 53 55 60 68 69 71 79 85 82 88 88 80 71 61 57
28 25 25 25 25 24 23 21 23 26 27 26 28 31 32 37 39 39 40 45 45 43 44 47 49 49 49 51 56 58 65 73 73 74 81 87 87 86 89 83 69 59 55
27 25 24 23 23 24 24 20 23 26 27 28 32 36 36 38 38 39 43 45 46 46 46 50 53 56 54 56 60 65 69 80 81 79 83 89 88 88 88 81 63 58 57
44 36 28 27 27 25 22 24 26 27 29 32 35 36 37 38 37 39 42 46 48 50 50 55 58 62 67 66 70 72 78 82 91 85 88 97 88 87 87 74 60 59 57
54 46 43 38 36 27 23 23 27 31 32 32 36 36 37 38 41 43 45 48 52 52 55 59 61 65 70 70 73 77 80 79 93 94 92 94 94 92 84 65 60 60 58
65 54 49 46 42 41 38 31 31 32 33 34 36 38 41 42 44 46 46 49 57 54 55 58 64 69 72 76 79 79 83 84 93 98 98 95 96 92 77 65 61 61 59
79 67 61 55 49 51 53 43 37 35 36 36 38 42 45 43 46 50 52 55 58 58 60 62 64 70 76 79 82 82 84 89 98 91 94 96 93 87 72 65 63 62 61
86 73 69 59 57 55 54 60 53 45 45 44 44 47 49 49 51 53 54 56 58 59 63 64 63 66 76 83 84 86 87 89 90 89 94 94 92 84 70 65 62 62 61
93 88 84 72 64 59 56 63 65 61 58 62 60 56 55 54 56 58 57 60 62 64 65 66 66 68 77 79 86 86 89 91 89 91 95 97 92 79 65 64 62 62 63
80 95 95 86 81 73 66 63 69 67 58 61 59 62 67 65 65 60 59 61 62 66 65 61 66 70 79 80 85 90 86 87 89 92 92 91 83 70 64 62 62 64 71
68 79 94 94 91 87 79 71 69 68 65 64 60 55 57 61 66 65 65 65 64 65 66 64 68 73 82 78 78 92 86 85 85 89 91 85 78 67 59 69 65 70 71
72 70 75 89 93 91 89 80 73 70 70 69 68 62 56 56 56 62 65 66 66 67 67 66 76 81 82 76 91 88 93 91 88 90 93 87 78 63 80 61 66 78 70
64 67 67 71 84 92 92 92 85 82 72 71 72 71 66 64 60 58 58 63 65 71 70 70 76 80 81 78 78 86 89 88 93 98 91 82 70 73 72 64 75 76 81
58 57 63 67 73 72 80 87 93 86 83 78 75 78 76 72 65 65 62 64 64 63 67 66 66 70 68 75 80 81 86 98 89 95 91 79 67 75 67 75 80 81 79
59 57 55 54 58 59 57 67 78 87 87 85 86 80 81 82 77 73 69 67 65 66 65 70 71 73 75 78 82 86 87 87 88 85 88 81 75 76 86 86 83 84 74
53 54 54 51 50 51 50 48 49 62 81 82 83 87 80 85 79 76 78 73 70 66 65 63 69 73 74 79 85 91 93 87 92 94 90 84 88 85 94 90 89 82 71

GFSMW_prec_cthk_255.txt.gz
RH
33 36 34 38 44 47 46 45 44 43 41 37 36 36 34 34 34 36 38 39 35 36 37 38 36 36 36 36 38 39 43 48 49 48 47 48 53 58 65 69 73 76 81
34 35 37 38 39 43 42 43 43 44 42 39 37 37 35 34 34 36 38 38 38 36 38 38 37 38 39 39 40 41 43 47 50 50 51 55 58 62 62 63 70 73 78
35 38 37 35 37 40 42 42 42 42 39 40 39 39 37 35 34 33 35 36 37 38 39 39 36 38 39 40 41 42 45 47 50 52 53 58 60 61 62 62 65 69 75
36 37 38 38 36 38 43 45 43 41 39 39 39 38 34 30 30 33 35 36 38 39 40 40 41 42 42 40 41 44 46 50 52 53 54 56 57 59 59 62 66 68 73
36 35 35 37 39 41 43 45 44 43 39 39 38 38 37 36 37 35 33 33 37 40 41 42 43 43 42 41 42 44 47 49 51 53 53 57 58 57 58 62 65 67 75
34 35 34 37 38 40 43 44 47 44 41 39 39 37 38 40 40 38 37 35 34 37 38 40 40 40 39 40 44 46 46 48 49 52 55 55 56 56 59 61 65 68 71
29 34 36 37 38 41 38 41 45 45 43 40 39 37 37 38 41 41 39 40 37 34 34 36 36 37 39 41 45 46 45 46 48 51 54 59 60 62 64 66 67 71 77
30 31 38 36 40 38 38 39 39 40 42 40 38 38 38 38 37 40 42 42 40 39 37 36 36 38 40 42 45 47 46 44 44 46 51 56 63 68 68 68 69 74 78
29 30 33 36 37 40 38 37 37 38 40 33 33 35 34 35 34 34 37 40 42 40 40 39 38 37 38 40 43 45 46 47 47 47 51 55 60 65 70 74 73 76 77
32 30 31 35 35 38 39 40 39 37 36 34 33 33 32 30 32 36 35 35 37 40 41 42 41 41 41 41 43 44 46 48 51 51 52 56 60 67 71 72 77 79 80
32 34 30 31 34 39 42 43 43 39 37 35 32 36 34 31 34 34 33 35 38 38 41 44 45 45 45 45 45 45 46 47 51 53 54 57 60 69 73 74 76 80 84
31 39 38 33 32 34 40 42 44 43 40 34 30 29 30 31 38 38 35 38 38 38 38 42 47 51 50 49 48 47 47 48 52 53 58 58 62 66 71 77 79 81 87
41 39 46 39 36 34 33 38 41 41 39 38 32 29 28 29 31 32 35 38 39 39 40 41 42 46 49 52 54 53 51 52 54 57 61 65 68 70 70 73 82 84 92
60 50 50 50 42 38 35 34 34 33 37 36 33 29 26 25 27 28 35 36 38 41 39 39 42 44 49 52 56 59 60 57 56 57 59 64 70 76 75 77 83 86 97
79 63 54 56 52 42 40 36 35 34 32 31 32 29 26 25 27 30 32 36 38 34 35 42 43 46 52 53 53 62 66 66 64 59 59 63 71 78 83 86 91 90 93
96 80 70 60 58 55 47 45 41 38 36 32 28 29 30 29 28 29 31 33 35 35 34 34 41 47 51 53 57 62 68 70 70 70 68 68 76 84 92 96 97 98 97
99 95 84 72 63 62 58 50 48 44 41 36 33 29 30 30 29 30 31 27 27 32 34 36 42 47 52 55 59 61 65 72 73 73 71 70 77 83 92 96 95 95 91
97 97 94 85 77 67 67 58 57 54 52 47 40 36 32 30 32 33 31 30 30 30 34 39 45 50 52 55 58 60 66 71 72 69 69 72 78 86 94 99 98 97 95
90 90 92 96 91 81 72 65 63 59 56 50 44 41 35 30 31 30 30 32 34 37 41 46 50 52 53 57 62 64 67 70 69 68 70 73 78 85 95 96 97 97 93
84 84 82 88 92 87 84 78 70 69 67 62 55 52 46 41 35 32 33 38 39 40 48 52 53 55 57 59 63 67 69 69 69 69 73 77 76 82 89 94 95 98 98
80 81 83 78 83 91 91 90 83 77 74 74 73 64 55 49 47 43 44 46 46 48 53 56 57 59 59 61 63 64 64 68 70 72 74 74 75 88 89 94 96 97 93
78 79 81 82 78 79 84 90 88 88 82 77 72 78 73 68 65 69 59 57 56 54 58 60 61 63 63 62 63 63 65 68 71 75 76 74 81 92 94 94 93 96 93
78 76 74 73 73 77 83 93 95 93 91 86 79 77 76 81 78 81 78 73 70 66 68 68 67 65 65 65 66 67 67 68 73 73 75 76 82 92 91 97 97 93 92
73 71 68 68 67 68 73 79 88 93 87 89 88 86 85 87 92 91 91 89 85 79 75 77 73 69 70 71 70 69 68 67 73 78 80 82 86 90 89 92 96 90 84
58 58 56 54 59 59 62 68 76 83 89 83 91 90 86 87 88 92 94 94 94 88 83 81 80 79 78 78 76 72 73 70 72 78 82 84 90 89 87 94 88 83 86
47 49 48 47 47 46 46 48 59 67 78 84 79 86 90 92 93 93 92 93 95 95 90 89 87 86 85 79 77 76 74 72 79 80 81 90 90 87 89 88 87 86 84

GFSMW_prec_cthk_261.txt.gz
RH
26 27 25 31 37 41 52 57 60 58 55 51 47 46 43 46 48 48 48 43 38 36 34 36 38 39 37 34 35 36 41 48 55 59 61 58 58 52 53 51 54 59 64
27 33 33 32 34 39 49 57 61 61 59 55 50 46 45 48 50 51 50 48 43 42 36 35 38 39 40 36 36 38 40 46 53 57 59 63 61 55 52 51 56 57 59
28 30 32 32 32 37 48 58 59 59 60 59 59 58 56 56 56 54 51 48 45 43 41 36 38 40 40 38 38 36 39 42 49 55 60 66 62 59 55 57 58 57 55
18 26 31 32 35 36 50 58 59 61 63 64 61 58 54 51 48 46 49 48 45 44 44 42 38 38 39 41 39 38 37 41 46 53 60 63 64 68 61 57 58 57 55
16 17 24 34 34 39 54 59 59 59 65 65 63 58 55 52 51 51 48 48 46 45 44 44 44 40 38 38 43 43 40 41 44 49 53 58 64 65 63 58 56 60 56
22 18 19 27 39 43 48 58 57 59 65 70 64 60 56 51 52 48 45 45 44 44 42 43 42 43 41 37 41 45 42 43 42 47 52 55 60 63 62 62 58 58 60
19 29 19 24 36 43 47 57 62 60 60 69 65 61 58 53 49 46 44 44 42 41 41 40 40 42 42 41 42 43 46 46 49 45 50 54 56 60 61 61 61 59 57
38 30 28 30 32 44 47 52 57 62 60 61 63 61 58 56 50 48 45 42 40 36 41 39 38 39 41 45 44 44 45 47 46 45 47 54 56 58 60 61 59 61 59
48 45 33 23 31 39 43 45 50 57 64 60 60 62 58 56 49 45 42 41 41 38 38 39 38 38 41 42 44 45 44 44 45 43 46 50 54 55 58 60 61 58 58
62 52 45 29 27 33 40 42 45 57 59 62 60 57 55 54 47 45 43 42 38 41 41 43 42 42 41 42 43 42 41 41 41 43 44 46 49 54 56 59 61 57 59
58 54 48 36 29 32 38 42 43 48 58 58 57 55 55 55 52 47 43 42 43 46 47 45 43 46 48 48 46 42 42 41 41 41 42 41 46 51 56 59 58 58 62
71 66 57 50 37 34 36 41 43 42 50 55 53 52 52 57 52 47 44 42 42 44 45 47 48 47 49 50 49 46 44 42 41 39 43 42 48 49 54 60 59 63 64
76 75 65 61 46 35 38 47 47 44 48 55 56 53 55 60 53 46 46 45 44 45 45 46 45 44 43 45 46 48 49 49 46 45 45 43 48 49 51 55 61 64 67
81 82 79 69 65 50 43 46 52 54 51 67 65 58 54 56 55 50 50 48 43 41 40 41 42 44 43 44 46 48 52 51 52 53 50 49 49 50 51 56 59 64 69
98 88 84 80 64 59 51 45 52 54 52 47 60 65 57 58 58 58 55 47 41 41 41 40 41 44 44 43 45 47 48 52 55 58 57 55 55 57 58 57 59 66 71
97 93 92 79 78 65 56 48 46 52 51 52 57 61 70 64 65 61 57 52 48 44 40 38 40 42 41 42 43 46 47 49 52 53 55 56 60 59 62 63 63 65 68
98 98 96 88 81 82 67 56 54 52 57 56 54 58 63 67 66 62 64 60 54 49 43 41 42 42 41 42 43 47 49 49 50 51 51 51 53 58 61 65 66 64 66
98 97 98 95 89 91 84 69 58 54 57 61 58 57 57 60 62 63 61 59 57 53 46 42 40 40 40 40 42 44 47 49 49 51 50 48 48 51 61 66 67 68 70
87 94 97 98 92 92 93 81 71 64 56 62 66 60 59 56 57 61 63 63 59 55 51 46 42 40 37 38 40 43 49 51 48 49 46 42 43 49 56 67 67 69 73
87 86 91 90 93 97 93 91 80 74 67 63 68 67 63 61 59 56 54 59 63 59 57 54 46 42 39 37 38 42 44 48 50 45 38 40 42 47 55 63 67 71 73
77 76 78 77 81 82 91 94 91 84 78 73 67 71 69 65 62 59 57 55 56 61 59 59 52 43 40 40 39 41 43 43 45 44 39 36 40 48 58 66 71 73 74
70 67 67 68 69 68 68 74 79 92 85 78 76 74 74 70 65 63 60 59 57 57 59 59 58 50 45 42 40 41 42 42 43 43 41 40 47 57 65 68 74 73 72
64 61 59 61 63 63 64 65 70 72 81 84 78 80 78 78 73 68 63 63 61 60 58 58 56 50 50 45 44 43 44 43 45 44 41 48 52 61 65 69 71 72 70
63 59 58 53 57 61 59 62 66 65 69 74 74 72 83 82 81 77 71 68 67 65 66 64 63 56 53 50 48 47 48 49 48 47 48 51 54 58 66 71 74 73 72
58 59 57 55 50 53 55 53 59 58 61 67 69 72 68 78 88 86 85 80 73 70 70 67 64 61 56 55 55 54 52 50 49 47 48 49 53 57 63 68 72 72 74
60 58 54 51 45 44 47 47 49 53 56 57 62 67 71 68 73 87 84 82 76 75 73 70 70 65 61 60 56 56 56 55 58 57 55 52 53 58 64 71 73 75 76